******** Week 150 almanac for PRN-1 ******** ID: 1 Health: 0 Eccentricity: 0.01141881943 Time of Applicability(s): 147456 Orbital Inclination(rad): 0.9868433967 Rate of Right Ascen(r/s): -7.611745631e-09 SQRT(A) (m 1/2): 5153.629395 Right Ascen at Week(rad): -2.035747927 Argument of Perigee(rad): 0.8817651888 Mean Anom(rad): -2.458242788 Af0(s): 0.0003368924194 Af1(s/s): -1.091394e-11 week: 150 ******** Week 150 almanac for PRN-2 ******** ID: 2 Health: 0 Eccentricity: 0.02064323425 Time of Applicability(s): 147456 Orbital Inclination(rad): 0.9651879023 Rate of Right Ascen(r/s): -7.783181343e-09 SQRT(A) (m 1/2): 5153.652344 Right Ascen at Week(rad): -2.125152492 Argument of Perigee(rad): -1.439790024 Mean Anom(rad): -2.316603106 Af0(s): -0.0005147595581 Af1(s/s): 0 week: 150 ******** Week 150 almanac for PRN-3 ******** ID: 3 Health: 0 Eccentricity: 0.003888130188 Time of Applicability(s): 147456 Orbital Inclination(rad): 0.9724862952 Rate of Right Ascen(r/s): -7.988904198e-09 SQRT(A) (m 1/2): 5153.621094 Right Ascen at Week(rad): -1.000355086 Argument of Perigee(rad): 0.9558291967 Mean Anom(rad): 2.673114697 Af0(s): -0.0001040070557 Af1(s/s): -1.818989e-11 week: 150 ******** Week 150 almanac for PRN-4 ******** ID: 4 Health: 0 Eccentricity: 0.001708984375 Time of Applicability(s): 147456 Orbital Inclination(rad): 0.9615446979 Rate of Right Ascen(r/s): -7.908900866e-09 SQRT(A) (m 1/2): 5153.597656 Right Ascen at Week(rad): 0.08082011477 Argument of Perigee(rad): -3.05272401 Mean Anom(rad): -0.6841149849 Af0(s): -0.0001484738403 Af1(s/s): 3.637979e-12 week: 150 ******** Week 150 almanac for PRN-5 ******** ID: 5 Health: 0 Eccentricity: 0.005860805511 Time of Applicability(s): 147456 Orbital Inclination(rad): 0.9594654349 Rate of Right Ascen(r/s): -8.126052768e-09 SQRT(A) (m 1/2): 5153.612305 Right Ascen at Week(rad): -1.040849408 Argument of Perigee(rad): 1.008669517 Mean Anom(rad): 0.1961596659 Af0(s): -5.727924805e-05 Af1(s/s): 0 week: 150 ******** Week 150 almanac for PRN-6 ******** ID: 6 Health: 0 Eccentricity: 0.002694606781 Time of Applicability(s): 147456 Orbital Inclination(rad): 0.986220217 Rate of Right Ascen(r/s): -7.611745631e-09 SQRT(A) (m 1/2): 5153.633301 Right Ascen at Week(rad): -2.044020413 Argument of Perigee(rad): -0.9489581163 Mean Anom(rad): -2.139382261 Af0(s): 0.0001650546753 Af1(s/s): 1.091394e-11 week: 150 ******** Week 150 almanac for PRN-7 ******** ID: 7 Health: 0 Eccentricity: 0.0155673027 Time of Applicability(s): 147456 Orbital Inclination(rad): 0.9508487772 Rate of Right Ascen(r/s): -7.874613723e-09 SQRT(A) (m 1/2): 5153.641602 Right Ascen at Week(rad): 1.099462005 Argument of Perigee(rad): -2.28972249 Mean Anom(rad): -3.129724527 Af0(s): 0.0002464515015 Af1(s/s): 3.637979e-12 week: 150 ******** Week 150 almanac for PRN-8 ******** ID: 8 Health: 0 Eccentricity: 0.007326126099 Time of Applicability(s): 147456 Orbital Inclination(rad): 0.9649302414 Rate of Right Ascen(r/s): -8.057478483e-09 SQRT(A) (m 1/2): 5153.67334 Right Ascen at Week(rad): -3.115334844 Argument of Perigee(rad): 0.1111001315 Mean Anom(rad): -0.2032988934 Af0(s): -4.522045898e-05 Af1(s/s): 0 week: 150 ******** Week 150 almanac for PRN-9 ******** ID: 9 Health: 0 Eccentricity: 0.002237796783 Time of Applicability(s): 147456 Orbital Inclination(rad): 0.9545399184 Rate of Right Ascen(r/s): -7.988904198e-09 SQRT(A) (m 1/2): 5153.562012 Right Ascen at Week(rad): 0.02783448588 Argument of Perigee(rad): 1.872547126 Mean Anom(rad): 0.1703531356 Af0(s): -0.0002788594971 Af1(s/s): 0 week: 150 ******** Week 150 almanac for PRN-10 ******** ID: 10 Health: 0 Eccentricity: 0.007524490356 Time of Applicability(s): 147456 Orbital Inclination(rad): 0.9723185161 Rate of Right Ascen(r/s): -7.954617056e-09 SQRT(A) (m 1/2): 5153.625 Right Ascen at Week(rad): -1.003143666 Argument of Perigee(rad): -2.510426223 Mean Anom(rad): 1.788430975 Af0(s): -0.0002585102905 Af1(s/s): -1.091394e-11 week: 150 ******** Week 150 almanac for PRN-11 ******** ID: 11 Health: 255 Eccentricity: 0.0002698898315 Time of Applicability(s): 147456 Orbital Inclination(rad): 0.9619341852 Rate of Right Ascen(r/s): -7.851755628e-09 SQRT(A) (m 1/2): 5153.728027 Right Ascen at Week(rad): -1.992121978 Argument of Perigee(rad): 2.846999809 Mean Anom(rad): -0.3206154671 Af0(s): -6.481599121e-05 Af1(s/s): 1.091394e-11 week: 150 ******** Week 150 almanac for PRN-12 ******** ID: 12 Health: 0 Eccentricity: 0.008701324463 Time of Applicability(s): 147456 Orbital Inclination(rad): 0.9700534976 Rate of Right Ascen(r/s): -8.080336578e-09 SQRT(A) (m 1/2): 5153.544922 Right Ascen at Week(rad): 2.212572169 Argument of Perigee(rad): 1.247933069 Mean Anom(rad): 2.505546771 Af0(s): -0.0001379223999 Af1(s/s): -7.275958e-12 week: 150 ******** Week 150 almanac for PRN-13 ******** ID: 13 Health: 0 Eccentricity: 0.005811214447 Time of Applicability(s): 147456 Orbital Inclination(rad): 0.9689869016 Rate of Right Ascen(r/s): -7.806039438e-09 SQRT(A) (m 1/2): 5153.624023 Right Ascen at Week(rad): 0.1807146215 Argument of Perigee(rad): 0.9553179946 Mean Anom(rad): -0.7608439849 Af0(s): 0.00020952146 Af1(s/s): 7.275958e-12 week: 150 ******** Week 150 almanac for PRN-14 ******** ID: 14 Health: 0 Eccentricity: 0.001450061798 Time of Applicability(s): 147456 Orbital Inclination(rad): 0.9534553461 Rate of Right Ascen(r/s): -8.240343243e-09 SQRT(A) (m 1/2): 5153.592773 Right Ascen at Week(rad): 2.181169755 Argument of Perigee(rad): 3.022093829 Mean Anom(rad): 2.565837159 Af0(s): -6.858436279e-05 Af1(s/s): -3.637979e-12 week: 150 ******** Week 150 almanac for PRN-15 ******** ID: 15 Health: 0 Eccentricity: 0.01394271851 Time of Applicability(s): 147456 Orbital Inclination(rad): 0.930379721 Rate of Right Ascen(r/s): -8.274630386e-09 SQRT(A) (m 1/2): 5153.679688 Right Ascen at Week(rad): -0.07833114106 Argument of Perigee(rad): 1.076436938 Mean Anom(rad): -1.193980838 Af0(s): -6.481599121e-05 Af1(s/s): 3.637979e-12 week: 150 ******** Week 150 almanac for PRN-16 ******** ID: 16 Health: 0 Eccentricity: 0.01277828217 Time of Applicability(s): 147456 Orbital Inclination(rad): 0.9700175449 Rate of Right Ascen(r/s): -8.091765626e-09 SQRT(A) (m 1/2): 5153.554199 Right Ascen at Week(rad): 2.231188539 Argument of Perigee(rad): 0.7095309044 Mean Anom(rad): 0.6506819935 Af0(s): -0.0003730687866 Af1(s/s): -3.637979e-12 week: 150 ******** Week 150 almanac for PRN-17 ******** ID: 17 Health: 0 Eccentricity: 0.01358222961 Time of Applicability(s): 147456 Orbital Inclination(rad): 0.9800723096 Rate of Right Ascen(r/s): -7.828897533e-09 SQRT(A) (m 1/2): 5153.716797 Right Ascen at Week(rad): -3.033390459 Argument of Perigee(rad): -1.497037917 Mean Anom(rad): -0.2910627429 Af0(s): 0.0004567266357 Af1(s/s): 3.637979e-12 week: 150 ******** Week 150 almanac for PRN-18 ******** ID: 18 Health: 0 Eccentricity: 0.002103805542 Time of Applicability(s): 147456 Orbital Inclination(rad): 0.9706347325 Rate of Right Ascen(r/s): -7.794610391e-09 SQRT(A) (m 1/2): 5153.575195 Right Ascen at Week(rad): -2.028024468 Argument of Perigee(rad): 3.102140212 Mean Anom(rad): -2.250192149 Af0(s): 0.0001861575562 Af1(s/s): -7.275958e-12 week: 150 ******** Week 150 almanac for PRN-19 ******** ID: 19 Health: 0 Eccentricity: 0.008988857269 Time of Applicability(s): 147456 Orbital Inclination(rad): 0.9788319423 Rate of Right Ascen(r/s): -7.840326581e-09 SQRT(A) (m 1/2): 5153.640625 Right Ascen at Week(rad): -2.988536875 Argument of Perigee(rad): 2.009484872 Mean Anom(rad): 2.12421173 Af0(s): 9.64703125e-05 Af1(s/s): 3.637979e-12 week: 150 ******** Week 150 almanac for PRN-20 ******** ID: 20 Health: 0 Eccentricity: 0.005142211914 Time of Applicability(s): 147456 Orbital Inclination(rad): 0.9416508846 Rate of Right Ascen(r/s): -8.274630386e-09 SQRT(A) (m 1/2): 5153.691895 Right Ascen at Week(rad): -1.155027613 Argument of Perigee(rad): 3.138931782 Mean Anom(rad): -1.45140124 Af0(s): 0.0004084914795 Af1(s/s): 0 week: 150 ******** Week 150 almanac for PRN-21 ******** ID: 21 Health: 0 Eccentricity: 0.02458572388 Time of Applicability(s): 147456 Orbital Inclination(rad): 0.9594414664 Rate of Right Ascen(r/s): -7.794610391e-09 SQRT(A) (m 1/2): 5153.534668 Right Ascen at Week(rad): -2.126825789 Argument of Perigee(rad): -1.000229627 Mean Anom(rad): -0.09886536143 Af0(s): 0.0001251099365 Af1(s/s): 0 week: 150 ******** Week 150 almanac for PRN-22 ******** ID: 22 Health: 0 Eccentricity: 0.01293802261 Time of Applicability(s): 147456 Orbital Inclination(rad): 0.9617004928 Rate of Right Ascen(r/s): -7.886042771e-09 SQRT(A) (m 1/2): 5153.606445 Right Ascen at Week(rad): 0.1291176647 Argument of Perigee(rad): -1.871398513 Mean Anom(rad): -0.4094219442 Af0(s): 0.0001718377441 Af1(s/s): 7.275958e-12 week: 150 ******** Week 150 almanac for PRN-23 ******** ID: 23 Health: 0 Eccentricity: 0.001989364624 Time of Applicability(s): 147456 Orbital Inclination(rad): 0.9673630391 Rate of Right Ascen(r/s): -8.011762293e-09 SQRT(A) (m 1/2): 5153.646484 Right Ascen at Week(rad): -1.028037148 Argument of Perigee(rad): 2.974480878 Mean Anom(rad): 3.097669722 Af0(s): -7.536743164e-07 Af1(s/s): -3.637979e-12 week: 150 ******** Week 150 almanac for PRN-24 ******** ID: 24 Health: 0 Eccentricity: 0.01235294342 Time of Applicability(s): 147456 Orbital Inclination(rad): 0.9343884443 Rate of Right Ascen(r/s): -8.023191341e-09 SQRT(A) (m 1/2): 5153.642578 Right Ascen at Week(rad): 1.016592962 Argument of Perigee(rad): 0.8081123895 Mean Anom(rad): -2.162825277 Af0(s): 0.0002163045288 Af1(s/s): -3.637979e-12 week: 150 ******** Week 150 almanac for PRN-25 ******** ID: 25 Health: 0 Eccentricity: 0.01052522659 Time of Applicability(s): 147456 Orbital Inclination(rad): 0.9574640693 Rate of Right Ascen(r/s): -8.194627053e-09 SQRT(A) (m 1/2): 5153.652832 Right Ascen at Week(rad): 2.135752164 Argument of Perigee(rad): 0.9820918766 Mean Anom(rad): 2.246230239 Af0(s): 0.0002283633179 Af1(s/s): 3.637979e-12 week: 150 ******** Week 150 almanac for PRN-26 ******** ID: 26 Health: 0 Eccentricity: 0.006900787353 Time of Applicability(s): 147456 Orbital Inclination(rad): 0.9382833174 Rate of Right Ascen(r/s): -8.377491813e-09 SQRT(A) (m 1/2): 5153.644531 Right Ascen at Week(rad): 2.088621953 Argument of Perigee(rad): 0.3715615307 Mean Anom(rad): 1.593237538 Af0(s): 0.0001462128174 Af1(s/s): 3.637979e-12 week: 150 ******** Week 150 almanac for PRN-27 ******** ID: 27 Health: 0 Eccentricity: 0.01028108597 Time of Applicability(s): 147456 Orbital Inclination(rad): 0.9736427729 Rate of Right Ascen(r/s): -7.954617056e-09 SQRT(A) (m 1/2): 5153.603027 Right Ascen at Week(rad): -3.095867968 Argument of Perigee(rad): 0.6414833518 Mean Anom(rad): -0.2392021332 Af0(s): 0.0001017460327 Af1(s/s): 1.455192e-11 week: 150 ******** Week 150 almanac for PRN-29 ******** ID: 29 Health: 0 Eccentricity: 0.001855373383 Time of Applicability(s): 147456 Orbital Inclination(rad): 0.9820916515 Rate of Right Ascen(r/s): -7.828897533e-09 SQRT(A) (m 1/2): 5153.704102 Right Ascen at Week(rad): -3.020369224 Argument of Perigee(rad): 2.245856481 Mean Anom(rad): -0.1051211268 Af0(s): -0.0003813592041 Af1(s/s): -3.637979e-12 week: 150 ******** Week 150 almanac for PRN-30 ******** ID: 30 Health: 0 Eccentricity: 0.005528450012 Time of Applicability(s): 147456 Orbital Inclination(rad): 0.9360063146 Rate of Right Ascen(r/s): -8.034620388e-09 SQRT(A) (m 1/2): 5153.523926 Right Ascen at Week(rad): 1.112500467 Argument of Perigee(rad): -2.741327782 Mean Anom(rad): -3.088936967 Af0(s): -0.0004069841309 Af1(s/s): -3.637979e-12 week: 150 ******** Week 150 almanac for PRN-31 ******** ID: 31 Health: 0 Eccentricity: 0.01045846939 Time of Applicability(s): 147456 Orbital Inclination(rad): 0.9550612322 Rate of Right Ascen(r/s): -7.840326581e-09 SQRT(A) (m 1/2): 5153.644043 Right Ascen at Week(rad): 1.117582527 Argument of Perigee(rad): 0.3769828944 Mean Anom(rad): 2.700849939 Af0(s): -0.0001311393311 Af1(s/s): 0 week: 150 ******** Week 150 almanac for PRN-32 ******** ID: 32 Health: 0 Eccentricity: 0.005603790283 Time of Applicability(s): 147456 Orbital Inclination(rad): 0.9583988389 Rate of Right Ascen(r/s): -7.943188008e-09 SQRT(A) (m 1/2): 5153.722656 Right Ascen at Week(rad): 0.03905995955 Argument of Perigee(rad): -2.349340638 Mean Anom(rad): 0.3985837108 Af0(s): -5.652557373e-05 Af1(s/s): -7.275958e-12 week: 150